EHI
0 1 3 5 5 5 6 6 5 5 6 8 9 9 9 8 6 6 6 5 3 2 1 2 2 2 1 0 0 0 0 0 0 0 0 0 0 0 0 0 0 0 0
0 1 3 4 5 6 7 7 6 6 6 7 8 7 6 6 5 4 4 4 3 1 0 1 1 1 0 0 0 0 0 0 0 0 0 0 0 0 0 0 0 0 0
1 2 3 5 7 8 8 8 7 7 6 6 6 5 4 4 3 3 3 3 2 1 0 0 0 0 0 0 0 0 0 0 0 0 0 0 0 0 0 0 0 0 0
2 3 4 6 9 10 10 10 9 7 6 5 4 4 4 4 4 3 3 3 2 1 0 0 0 0 0 0 0 0 0 0 0 0 0 0 0 0 0 0 0 0 0
1 2 4 7 11 11 11 11 10 8 6 4 3 3 5 5 5 4 3 3 3 1 0 0 0 0 0 0 0 0 0 0 0 0 0 0 0 0 0 0 0 0 0
0 1 3 8 12 13 12 11 10 7 5 3 2 2 4 5 6 5 4 3 3 2 1 0 0 0 0 0 0 0 0 0 0 0 0 0 0 0 0 0 0 0 0
0 1 3 8 12 12 12 11 9 6 4 3 2 1 2 4 5 5 4 3 3 2 1 0 0 0 0 0 0 0 0 0 0 0 0 0 0 0 0 0 0 0 0
1 2 4 7 9 9 9 10 9 6 4 3 2 1 1 2 4 5 5 4 3 2 1 0 0 0 0 0 0 0 0 0 0 0 0 0 0 0 0 0 0 0 0
2 3 3 4 5 5 5 7 8 6 4 3 2 1 0 1 2 3 4 3 1 1 0 0 0 0 0 0 0 0 0 0 0 0 0 0 0 0 0 0 0 0 0
1 1 1 1 2 3 3 3 5 5 4 3 2 1 0 0 1 1 1 1 0 0 0 0 0 0 0 0 0 0 0 0 0 0 0 0 0 0 0 0 0 0 0
2 1 0 1 2 3 3 2 3 4 4 4 2 1 0 1 1 0 0 0 0 0 0 0 0 0 0 0 0 0 0 0 0 0 0 0 0 0 0 0 0 0 0
3 2 1 0 1 3 3 3 3 3 4 3 1 0 0 1 1 0 0 0 0 0 0 0 0 0 0 0 0 0 0 0 0 0 0 0 0 0 0 0 0 0 0
3 2 1 0 1 2 3 3 3 3 3 2 0 0 0 1 1 0 0 0 0 0 0 0 0 0 0 0 0 0 0 0 0 0 0 0 0 0 0 0 0 0 0
3 2 1 0 0 1 3 3 3 3 2 1 0 0 0 0 0 0 0 0 0 0 0 0 0 0 0 0 0 0 0 0 0 0 0 0 0 0 0 0 0 0 0
1 1 1 0 0 1 2 3 3 3 2 1 0 0 0 0 0 0 0 0 0 0 0 0 0 0 0 0 0 0 0 0 0 0 0 0 0 0 0 0 0 0 0
0 0 0 0 1 2 3 3 3 2 1 0 0 0 0 0 0 0 0 0 0 0 0 0 0 0 0 0 0 0 0 0 0 0 0 0 0 0 0 0 0 0 0
0 0 0 0 1 2 2 2 2 1 0 0 0 0 0 0 0 0 0 0 1 2 1 0 0 0 0 0 0 0 0 0 0 0 0 0 0 0 0 0 0 0 0
0 0 0 0 0 1 1 1 1 0 0 0 0 0 0 0 0 0 0 0 2 3 2 1 0 0 0 0 0 0 0 0 0 0 0 0 0 0 0 0 0 0 0
0 0 0 0 0 0 0 0 0 0 0 0 0 0 0 0 0 0 0 0 1 3 3 1 0 0 0 0 0 0 0 0 0 0 0 0 0 0 0 0 0 0 0
0 0 0 0 0 0 0 0 0 0 0 0 0 0 0 0 0 0 0 0 1 2 3 2 1 0 0 0 0 0 0 0 0 0 0 0 0 0 0 0 0 0 0
0 0 0 0 0 0 0 0 0 0 0 0 0 0 0 0 0 0 0 0 0 1 3 2 1 0 0 0 0 0 0 0 0 0 0 0 0 0 0 0 0 0 0
0 0 0 0 0 0 0 0 0 0 0 0 0 0 0 0 0 0 0 0 0 1 2 2 1 0 0 0 0 0 0 0 0 0 0 0 0 0 0 0 0 0 0
0 0 0 0 0 0 0 0 0 0 0 0 0 0 0 0 0 0 0 0 0 0 1 1 0 0 0 0 0 0 0 0 0 0 0 0 0 0 0 0 0 0 0
0 0 0 0 0 0 0 0 0 0 0 0 0 0 0 0 0 0 0 0 0 0 0 0 0 0 0 0 0 0 0 0 0 0 0 0 0 0 0 0 0 0 0
0 0 0 0 0 0 0 0 0 0 0 0 0 0 0 0 0 0 0 0 0 0 0 0 0 0 0 0 0 0 0 0 0 0 0 0 0 0 0 0 0 0 0
0 0 0 0 0 0 0 0 0 0 0 0 0 0 0 0 0 0 0 0 0 0 0 0 0 0 0 0 0 0 0 0 0 0 0 0 0 0 0 0 0 0 0
Wind_Speed
2 3 6 7 8 8 8 9 9 9 10 10 10 11 11 11 11 11 11 10 11 12 12 12 13 13 13 13 13 13 13 13 13 13 13 13 14 14 14 14 12 9 14
5 4 6 7 8 8 8 8 9 9 9 9 10 10 10 10 10 10 10 10 10 11 12 12 12 12 12 12 12 12 13 13 13 12 11 11 13 14 14 13 12 9 14
6 5 5 7 8 8 8 8 8 8 8 8 9 9 9 9 9 9 9 10 10 10 11 11 11 12 12 11 11 12 12 12 12 11 10 5 7 13 13 13 13 13 13
6 5 5 7 8 8 8 8 8 8 8 8 8 8 8 9 9 9 9 9 9 10 10 11 10 10 11 11 11 11 12 12 12 10 6 5 5 11 12 12 12 12 12
6 4 5 7 8 8 8 8 8 8 8 7 7 7 7 8 8 8 8 9 9 9 10 10 10 10 10 10 10 10 11 12 11 8 5 5 4 10 12 12 11 11 11
5 4 5 8 8 8 7 7 7 7 7 7 7 7 7 7 7 8 8 8 9 9 9 9 9 9 9 9 9 9 11 11 8 5 5 4 4 9 11 11 11 11 10
5 4 5 7 7 7 7 7 6 6 7 7 6 6 6 6 7 7 8 8 8 8 8 8 8 8 8 8 9 10 10 10 6 5 4 3 4 8 10 10 10 9 9
6 5 5 7 7 6 7 6 6 6 6 6 6 6 5 6 6 7 7 7 7 8 8 7 7 7 8 8 9 9 9 8 6 5 3 3 5 8 9 9 8 8 8
5 4 4 4 5 6 6 6 5 5 5 5 5 5 5 5 6 6 7 7 7 7 7 7 7 7 7 8 8 9 9 8 5 3 4 2 6 8 8 8 8 8 8
5 4 3 3 3 3 3 4 5 5 5 5 5 5 5 4 4 5 5 6 6 7 7 7 6 7 7 7 8 8 8 7 4 3 2 2 6 7 8 7 7 7 7
3 3 2 2 3 2 2 3 3 4 4 4 3 4 4 2 2 2 3 5 5 6 6 6 6 6 6 6 7 8 6 3 3 2 2 3 5 6 7 6 6 6 6
3 2 2 2 2 2 2 2 1 2 2 2 1 2 1 1 1 2 3 4 5 5 5 6 6 5 4 2 4 5 3 3 2 2 1 4 5 5 6 6 6 5 5
3 3 2 2 1 2 1 1 1 1 1 1 1 1 1 1 1 1 1 2 2 3 2 3 3 2 2 2 2 2 3 2 1 1 2 4 4 4 5 4 4 4 4
3 2 2 2 2 1 2 1 1 1 1 1 1 1 1 1 1 1 1 1 1 1 1 1 1 1 2 2 3 3 3 2 1 1 1 3 3 4 4 4 3 3 3
3 2 1 1 2 1 1 1 1 1 1 0 0 0 1 1 2 2 2 1 1 1 2 2 2 2 2 2 3 3 3 3 2 2 1 3 3 3 3 3 3 2 2
3 2 2 2 1 2 2 1 1 1 1 1 0 0 1 1 2 2 2 2 2 2 2 2 3 2 2 2 2 3 3 3 2 2 1 2 2 2 2 2 2 1 1
3 3 2 2 2 2 2 2 1 1 1 1 1 0 1 1 2 2 2 2 2 2 2 2 2 2 2 2 2 2 2 2 2 2 2 1 1 1 2 1 1 1 1
3 3 2 2 2 1 1 2 1 1 1 1 1 1 1 1 2 2 2 2 2 2 2 3 3 3 2 2 1 1 1 2 2 2 2 1 1 1 1 1 1 0 0
4 3 2 2 2 1 1 1 1 1 1 1 1 1 1 1 2 2 2 2 2 3 2 3 3 3 3 2 1 1 1 1 2 2 2 1 1 1 1 0 1 1 1
3 2 2 2 1 1 1 1 1 1 0 0 1 1 2 1 2 2 2 2 2 3 3 2 3 3 2 2 2 1 1 1 1 1 2 1 1 1 1 1 0 1 2
2 2 2 2 1 1 1 1 1 1 1 1 1 1 1 1 2 3 2 2 2 3 4 4 3 3 2 2 3 2 2 1 1 1 1 1 0 0 1 1 0 0 1
3 3 2 2 1 1 1 1 1 1 1 1 0 0 1 2 2 2 3 2 2 2 3 4 3 3 2 2 3 3 1 2 2 0 0 1 1 0 0 0 0 0 1
3 3 3 2 2 1 1 1 1 1 1 0 0 1 1 1 2 2 3 2 2 3 3 4 4 4 3 1 2 4 3 2 1 2 1 1 1 1 1 1 1 1 1
4 3 3 2 2 1 1 1 2 1 1 2 2 1 1 1 1 2 2 2 2 2 3 4 3 3 5 3 1 1 2 3 2 1 2 1 1 1 1 1 1 1 1
3 3 2 2 2 1 1 2 2 2 1 1 1 1 0 0 1 1 2 2 2 2 3 3 3 3 3 4 3 2 1 1 2 2 2 2 2 2 2 2 1 1 1
3 3 2 3 2 2 2 2 2 2 2 1 1 1 1 0 0 1 1 1 2 1 2 3 3 4 3 3 3 3 3 2 2 2 2 2 2 2 2 1 2 2 1
Wind_Direction
174 181 143 128 120 115 109 106 101 97 93 96 96 95 95 93 91 91 91 93 93 91 91 90 90 90 89 87 85 84 83 83 81 80 82 86 89 89 87 82 80 76 82
156 161 140 132 126 121 115 110 105 101 98 96 99 98 100 99 97 94 92 92 94 95 94 93 94 92 90 88 87 85 84 83 81 77 75 81 87 89 89 86 83 83 83
136 143 140 131 128 124 118 113 109 107 103 100 101 102 103 103 102 99 97 94 94 97 97 96 95 94 93 90 88 87 85 83 80 76 72 68 82 89 90 88 84 82 82
129 130 134 128 127 124 120 115 111 109 107 104 103 106 106 105 105 103 101 99 97 96 98 97 97 96 96 92 89 87 85 84 81 74 66 66 75 92 93 91 87 84 83
119 122 132 127 127 125 122 119 117 115 113 110 107 106 107 105 108 109 107 104 103 101 98 98 98 98 97 95 92 89 87 85 79 69 63 62 69 92 93 91 90 88 87
120 117 125 124 125 123 123 121 119 118 119 116 112 108 110 110 111 113 110 108 107 106 103 101 101 101 99 96 93 92 91 86 75 62 60 59 68 92 95 93 91 91 90
122 119 122 118 122 121 122 124 124 122 120 118 115 114 114 115 114 118 113 112 111 111 110 107 103 103 103 98 94 96 95 89 80 68 60 61 79 94 96 94 91 89 92
121 120 119 113 111 114 117 120 121 125 122 121 120 119 116 118 118 120 120 119 119 117 115 112 108 103 105 104 99 97 95 91 85 80 67 65 95 100 98 94 91 88 87
101 109 108 110 104 102 107 111 112 116 120 120 121 116 109 107 119 120 125 123 123 123 121 117 112 106 103 107 102 98 94 85 84 79 75 67 93 99 97 94 94 92 89
92 93 100 98 98 96 103 106 105 111 115 112 108 103 96 99 116 119 124 125 126 125 124 121 115 108 99 99 103 98 92 83 80 76 67 81 96 102 98 95 95 92 90
97 95 93 98 105 103 104 98 91 97 100 99 100 102 96 92 113 122 121 129 132 132 130 126 121 113 96 91 99 98 90 84 85 76 75 86 100 106 106 101 99 96 93
139 135 110 102 111 105 103 84 67 71 74 79 84 98 94 95 107 123 121 127 129 129 131 129 122 109 94 85 93 96 91 94 92 88 91 101 108 110 109 105 102 101 99
159 152 132 125 115 111 95 86 67 60 61 61 76 102 99 95 95 100 119 126 130 125 131 129 115 100 106 107 105 106 107 103 99 96 101 107 111 118 114 108 109 108 104
137 140 141 133 122 121 108 94 91 83 74 58 49 119 126 122 123 133 130 141 140 137 133 133 131 128 121 120 123 120 114 114 114 108 106 106 116 126 125 118 116 115 111
140 139 142 148 143 136 114 111 105 106 101 84 44 96 147 151 161 160 157 153 157 149 150 153 147 143 137 132 136 134 128 126 126 124 112 109 112 120 138 131 124 123 123
154 151 153 146 158 147 138 136 137 135 132 118 111 282 157 170 175 170 165 166 173 168 164 162 158 148 147 138 139 145 140 137 131 134 129 123 108 113 131 143 146 157 162
156 150 151 141 132 144 151 159 150 153 149 154 189 220 177 178 172 174 174 178 189 178 165 153 148 131 127 127 136 151 142 140 143 148 140 133 125 95 98 117 160 184 203
147 148 161 135 125 140 163 161 153 158 162 177 189 198 188 187 172 163 172 191 191 170 161 157 150 132 125 120 130 156 145 145 152 150 142 141 133 110 74 59 34 339 255
155 153 154 146 154 159 158 143 139 147 163 185 194 186 200 201 181 166 172 183 177 161 159 161 145 139 137 127 132 132 131 144 164 146 145 151 151 136 132 66 28 7 334
148 145 143 144 159 154 121 98 87 75 53 202 210 217 203 198 183 166 165 167 175 157 150 151 143 137 145 142 118 91 86 128 139 147 165 160 148 138 136 116 353 320 326
135 130 142 146 161 150 145 147 164 210 254 260 222 217 199 201 175 164 161 162 167 165 160 158 150 140 124 120 100 59 10 27 85 129 154 134 106 97 108 95 115 309 310
165 162 162 168 169 179 188 193 193 204 224 229 261 249 203 192 174 158 155 164 165 164 154 153 144 144 134 122 127 122 59 341 328 295 199 171 187 237 192 289 213 273 297
170 179 179 183 176 185 171 116 99 64 32 47 293 247 227 194 157 148 154 155 164 170 171 166 160 151 157 147 124 135 147 206 265 299 269 238 226 225 247 257 239 253 259
184 177 170 165 160 176 164 149 165 173 209 230 227 223 215 185 150 148 148 152 166 167 166 171 164 158 155 159 149 113 138 146 157 263 306 303 277 252 247 272 260 251 256
164 159 163 151 151 154 158 168 173 180 204 234 231 166 185 196 152 149 160 160 166 167 168 171 163 156 159 165 162 157 140 102 115 152 246 291 300 265 246 240 240 245 250
142 143 147 146 152 149 148 157 166 167 169 155 159 167 186 217 212 140 148 164 167 158 165 180 175 169 171 164 159 156 155 156 172 170 206 241 269 279 273 244 233 240 250